Find Starlink 35409

NORAD ID: 66196 Int'l Des: 2025-243 Owner: SPXS Country: US Constellation: starlink operational
LEOCIRCULAR

現在のビュー

3D地球を読み込み中...

About Starlink 35409

Starlink 35409 (NORAD 66196) is a starlink constellation satellite (v2 mini) launched Oct 26, 2025 by SPXS of US. It operates in LEO, CIRCULAR orbit with a mass of 575.00 kg.

次回通過

Passes for default location (London). Set your location on the main map for personalized predictions.

高度履歴

Loading altitude history...

軌道要素

1 66196U 25243V 26264.15476574 .00021959 00000-0 65919-3 0 9992
2 66196 53.1601 56.3977 0001008 102.4605 257.6510 15.34397459 50595
Epoch: Sep 21, 2026 • Age: 13 hours

現在のステータス

高度 466.7 km
遠地点 / 近地点 N/A
速度 7.64 km/s
衛星直下点 44.29°N, 147.27°W
打ち上げ日 Oct 26, 2025
運用期間 0.9 years
タイプ internet

技術仕様

分類 Payload
質量 575.00 kg
乾燥質量 530.00 kg
長さ 0.30 m
スパン 29.00 m
形状 ? Box + pan
製造者 SPXS
バスタイプ Starlink V2MO
フェーズステータス In Orbit
所有者/国 SPXS/US

Most Searched